TimeCST,TemperatureF,Dew PointF,Humidity,Sea Level PressureIn,VisibilityMPH,Wind Direction,Wind SpeedMPH,Gust SpeedMPH,PrecipitationIn,Events,Conditions,WindDirDegrees,DateUTC
12:15 AM,32.9,27.1,79,30.09,10.0,West,13.8,-,N/A,,Overcast,280,2012-12-27 06:15:00
12:35 AM,32.5,27.1,80,30.10,10.0,WNW,11.5,-,N/A,,Overcast,290,2012-12-27 06:35:00
12:55 AM,32.2,27.0,81,30.11,10.0,WNW,9.2,-,N/A,,Overcast,290,2012-12-27 06:55:00
1:15 AM,32.0,26.8,81,30.12,10.0,WNW,10.4,-,N/A,,Overcast,290,2012-12-27 07:15:00
1:35 AM,32.0,26.6,80,30.13,10.0,WNW,8.1,-,N/A,,Overcast,290,2012-12-27 07:35:00
1:55 AM,32.0,26.6,80,30.13,10.0,WNW,8.1,-,N/A,,Overcast,300,2012-12-27 07:55:00
2:15 AM,32.0,26.6,80,30.13,10.0,WNW,5.8,-,N/A,,Overcast,290,2012-12-27 08:15:00
2:35 AM,32.0,26.6,80,30.13,10.0,NW,4.6,-,N/A,,Overcast,310,2012-12-27 08:35:00
2:55 AM,32.0,26.4,80,30.13,10.0,WNW,5.8,-,N/A,,Overcast,300,2012-12-27 08:55:00
3:15 AM,32.0,26.6,80,30.13,10.0,WNW,6.9,-,N/A,,Overcast,290,2012-12-27 09:15:00
3:35 AM,31.8,26.4,80,30.13,10.0,WNW,6.9,-,N/A,,Overcast,300,2012-12-27 09:35:00
3:55 AM,31.8,26.4,80,30.14,10.0,WNW,6.9,-,N/A,,Overcast,300,2012-12-27 09:55:00
4:15 AM,31.8,26.2,80,30.14,10.0,WNW,6.9,-,N/A,,Overcast,290,2012-12-27 10:15:00
4:35 AM,31.6,26.1,80,30.15,10.0,WNW,5.8,-,N/A,,Overcast,290,2012-12-27 10:35:00
4:55 AM,31.5,26.1,80,30.15,10.0,WNW,6.9,-,N/A,,Overcast,300,2012-12-27 10:55:00
5:15 AM,31.1,26.1,82,30.15,10.0,WNW,5.8,-,N/A,,Overcast,300,2012-12-27 11:15:00
5:35 AM,31.1,26.1,82,30.16,10.0,West,8.1,-,N/A,,Overcast,280,2012-12-27 11:35:00
5:55 AM,31.1,26.1,82,30.17,10.0,WNW,5.8,-,N/A,,Overcast,290,2012-12-27 11:55:00
6:15 AM,31.1,26.2,82,30.17,10.0,WNW,5.8,-,N/A,,Overcast,290,2012-12-27 12:15:00
6:35 AM,31.1,26.1,82,30.18,10.0,West,5.8,-,N/A,,Overcast,280,2012-12-27 12:35:00
6:55 AM,31.1,26.1,82,30.18,10.0,WNW,4.6,-,N/A,,Overcast,290,2012-12-27 12:55:00
7:15 AM,30.9,26.1,82,30.19,10.0,WNW,5.8,-,N/A,,Overcast,290,2012-12-27 13:15:00
7:35 AM,30.9,25.7,81,30.19,10.0,West,5.8,-,N/A,,Overcast,270,2012-12-27 13:35:00
7:55 AM,30.9,25.7,81,30.19,10.0,West,5.8,-,N/A,,Overcast,270,2012-12-27 13:55:00
8:35 AM,31.1,26.1,82,30.20,10.0,West,5.8,-,N/A,,Overcast,260,2012-12-27 14:35:00
8:55 AM,31.5,25.7,79,30.22,10.0,West,5.8,-,N/A,,Overcast,260,2012-12-27 14:55:00
9:35 AM,32.0,25.7,78,30.22,10.0,WNW,3.5,-,N/A,,Overcast,300,2012-12-27 15:35:00
9:55 AM,32.5,24.6,73,30.22,10.0,WNW,3.5,-,N/A,,Overcast,290,2012-12-27 15:55:00
10:15 AM,32.5,24.6,73,30.21,10.0,NNW,3.5,-,N/A,,Overcast,330,2012-12-27 16:15:00
10:35 AM,32.9,24.6,72,30.21,10.0,Calm,Calm,-,N/A,,Overcast,0,2012-12-27 16:35:00
10:55 AM,33.1,24.3,70,30.20,10.0,Calm,Calm,-,N/A,,Overcast,0,2012-12-27 16:55:00
11:15 AM,32.9,24.6,72,30.20,10.0,Calm,Calm,-,N/A,,Overcast,0,2012-12-27 17:15:00
11:35 AM,33.1,24.4,71,30.20,10.0,WNW,3.5,-,N/A,,Overcast,300,2012-12-27 17:35:00
12:15 PM,34.0,24.4,68,30.18,10.0,Calm,Calm,-,N/A,,Overcast,0,2012-12-27 18:15:00
12:35 PM,33.3,24.4,70,30.18,10.0,Calm,Calm,-,N/A,,Overcast,0,2012-12-27 18:35:00
12:55 PM,33.3,24.4,70,30.18,10.0,Calm,Calm,-,N/A,,Overcast,0,2012-12-27 18:55:00
1:15 PM,33.1,24.8,72,30.18,10.0,Calm,Calm,-,N/A,,Overcast,0,2012-12-27 19:15:00
1:35 PM,33.4,24.3,69,30.18,10.0,Calm,Calm,-,N/A,,Overcast,0,2012-12-27 19:35:00
1:55 PM,33.8,23.7,67,30.16,10.0,Calm,Calm,-,N/A,,Overcast,0,2012-12-27 19:55:00
2:15 PM,34.2,23.5,65,30.16,10.0,Calm,Calm,-,N/A,,Overcast,0,2012-12-27 20:15:00
2:35 PM,33.3,23.7,68,30.15,10.0,Calm,Calm,-,N/A,,Overcast,0,2012-12-27 20:35:00
2:55 PM,32.7,24.6,72,30.16,10.0,Calm,Calm,-,N/A,,Overcast,0,2012-12-27 20:55:00
3:15 PM,32.7,24.8,73,30.17,10.0,West,3.5,-,N/A,,Overcast,270,2012-12-27 21:15:00
3:35 PM,32.9,23.9,69,30.17,10.0,Calm,Calm,-,N/A,,Overcast,0,2012-12-27 21:35:00
3:55 PM,32.5,23.9,70,30.18,10.0,Calm,Calm,-,N/A,,Overcast,0,2012-12-27 21:55:00
4:15 PM,32.2,24.1,72,30.17,10.0,Calm,Calm,-,N/A,,Overcast,0,2012-12-27 22:15:00
4:35 PM,32.0,24.8,75,30.17,10.0,Calm,Calm,-,N/A,,Overcast,0,2012-12-27 22:35:00
4:55 PM,32.2,24.4,73,30.18,10.0,Calm,Calm,-,N/A,,Overcast,0,2012-12-27 22:55:00
5:15 PM,32.2,25.2,75,30.17,10.0,Calm,Calm,-,N/A,,Overcast,0,2012-12-27 23:15:00
5:35 PM,32.4,25.3,75,30.17,10.0,Calm,Calm,-,N/A,,Overcast,0,2012-12-27 23:35:00
5:55 PM,32.0,25.5,77,30.18,10.0,SE,3.5,-,N/A,,Overcast,130,2012-12-27 23:55:00
6:15 PM,32.0,25.5,77,30.17,10.0,SE,4.6,-,N/A,,Overcast,140,2012-12-28 00:15:00
6:35 PM,32.0,25.3,76,30.17,10.0,ESE,3.5,-,N/A,,Overcast,110,2012-12-28 00:35:00
6:55 PM,32.0,25.3,76,30.17,10.0,ESE,3.5,-,N/A,,Overcast,120,2012-12-28 00:55:00
7:15 PM,32.0,25.0,75,30.17,10.0,SE,8.1,-,N/A,,Overcast,130,2012-12-28 01:15:00
7:35 PM,32.0,25.2,76,30.17,10.0,SE,5.8,-,N/A,,Overcast,130,2012-12-28 01:35:00
7:55 PM,32.0,25.3,76,30.16,10.0,SE,5.8,-,N/A,,Overcast,140,2012-12-28 01:55:00
8:15 PM,32.0,25.3,76,30.16,10.0,SE,4.6,-,N/A,,Overcast,130,2012-12-28 02:15:00
8:35 PM,32.0,25.5,77,30.16,10.0,SE,4.6,-,N/A,,Overcast,140,2012-12-28 02:35:00
8:55 PM,32.0,25.7,78,30.17,10.0,SSE,4.6,-,N/A,,Overcast,150,2012-12-28 02:55:00
9:15 PM,32.0,25.7,78,30.16,10.0,SE,3.5,-,N/A,,Overcast,140,2012-12-28 03:15:00
9:35 PM,32.0,25.9,78,30.16,10.0,SE,4.6,-,N/A,,Overcast,140,2012-12-28 03:35:00
9:55 PM,32.0,26.1,79,30.16,10.0,ESE,4.6,-,N/A,,Overcast,120,2012-12-28 03:55:00
10:15 PM,32.0,25.9,78,30.16,10.0,ESE,4.6,-,N/A,,Overcast,120,2012-12-28 04:15:00
10:35 PM,32.0,26.1,79,30.16,10.0,ESE,5.8,-,N/A,,Overcast,120,2012-12-28 04:35:00
10:55 PM,32.0,26.2,79,30.16,10.0,SE,4.6,-,N/A,,Overcast,130,2012-12-28 04:55:00
11:15 PM,32.0,26.6,80,30.15,10.0,ESE,3.5,-,N/A,,Overcast,120,2012-12-28 05:15:00
11:35 PM,32.0,26.6,80,30.15,10.0,ESE,3.5,-,N/A,,Overcast,120,2012-12-28 05:35:00
11:55 PM,32.0,26.6,80,30.14,10.0,Calm,Calm,-,N/A,,Overcast,0,2012-12-28 05:55:00